Barksdale AFB, LA

7:09 PM CST on February 17, 2018 (GMT -0600)
Barksdale Air Force Base

Weather History for KBAD - February, 2012

Change the Weather History Date:

Wednesday, February 15, 2012

  Actual Average Record
Temperature  
Mean Temperature 55 °F -  
Max Temperature 65 °F 59 °F 78 °F (2005)
Min Temperature 45 °F 40 °F 26 °F (1997)
Degree Days  
Heating Degree Days 10    
Growing Degree Days 5 (Base 50)    
Moisture  
Dew Point 55 °F    
Average Humidity 95    
Maximum Humidity 100    
Minimum Humidity 58    
Precipitation  
Precipitation 0.11 in - - ()
Sea Level Pressure  
Sea Level Pressure 29.98 in    
Wind  
Wind Speed 6 mph (SSE)    
Max Wind Speed 24 mph    
Max Gust Speed 28 mph    
Visibility 6 miles    
Events Fog , Rain , Thunderstorm    
Averages and records for this station are not official NWS values.
T = Trace of Precipitation, MM = Missing Value Source: NWS Daily Summary

Daily Weather History Graph

Daily Weather History Graph

Search for Another Location

Airport or City:

Trip Planner

Search our weather history database for the weather conditions in past years. The results will help you decide how hot, cold, wet, or windy it might be!

Date:

Astronomy

Feb. 15, 2012 Rise Set
Actual Time 6:57 AM CST 6:00 PM CST
Civil Twilight 6:32 AM CST 6:25 PM CST
Nautical Twilight 6:03 AM CST 6:54 PM CST
Astronomical Twilight 5:35 AM CST 7:22 PM CST
Moon 1:41 AM CST (2/15) 12:06 PM CST (2/15)
Length of Visible Light 11h 52m
Length of Day
11h 02m
Last Quarter, 38% of the Moon is Illuminated
Feb 15
Last Quarter
Feb 21
New
Feb 29
First Quarter
Mar 8
Full
Mar 14
Last Quarter

Hourly Weather History & Observations

Time (CST) Temp. Windchill Dew Point Humidity Pressure Visibility Wind Dir Wind Speed Gust Speed Precip Events Conditions
12:20 AM 46.4 °F 45.2 °F 46.4 °F 100% 30.05 in 7.0 mi SE 3.5 mph - N/A   Overcast
12:30 AM 46.4 °F 43.5 °F 46.4 °F 100% 30.04 in 6.0 mi SE 5.8 mph - N/A   Overcast
12:45 AM 46.4 °F 42.9 °F 46.4 °F 100% 30.04 in 2.5 mi SE 6.9 mph - N/A   Overcast
12:48 AM 46.4 °F 42.9 °F 46.4 °F 100% 30.04 in 2.5 mi SE 6.9 mph - N/A   Overcast
12:49 AM 46.4 °F 42.9 °F 46.4 °F 100% 30.04 in 1.0 mi SE 6.9 mph - N/A   Overcast
12:55 AM 46.2 °F 43.3 °F 46.0 °F 99% 30.04 in 1.0 mi SE 5.8 mph - N/A   Overcast
1:24 AM 46.4 °F 43.5 °F 46.4 °F 100% 30.04 in - SE 5.8 mph - N/A   Overcast
1:36 AM 46.4 °F 43.5 °F 46.4 °F 100% 30.03 in 1.5 mi SE 5.8 mph - N/A   Overcast
1:42 AM 46.4 °F 42.9 °F 46.4 °F 100% 30.03 in 2.0 mi SE 6.9 mph - N/A   Overcast
1:55 AM 45.3 °F 41.6 °F 45.1 °F 99% 30.03 in 3.0 mi SE 6.9 mph - N/A   Mostly Cloudy
2:55 AM 45.0 °F 39.7 °F 44.8 °F 99% 29.99 in 10.0 mi SE 10.4 mph - N/A   Clear
3:55 AM 45.3 °F 42.3 °F 44.4 °F 97% 29.99 in 10.0 mi South 5.8 mph - N/A   Partly Cloudy
4:55 AM 45.7 °F - 44.8 °F 97% 30.00 in 10.0 mi Calm Calm - N/A   Mostly Cloudy
5:55 AM 46.2 °F 42.2 °F 45.1 °F 96% 29.99 in 10.0 mi South 8.1 mph - N/A   Mostly Cloudy
6:55 AM 46.8 °F - 45.1 °F 94% 30.01 in 10.0 mi Calm Calm - N/A   Mostly Cloudy
7:55 AM 49.5 °F - 46.9 °F 91% 30.01 in 10.0 mi SSE 4.6 mph - N/A   Overcast
8:43 AM 51.8 °F - 48.2 °F 88% 30.02 in 10.0 mi South 9.2 mph - N/A   Overcast
8:55 AM 52.7 °F - 47.5 °F 82% 30.02 in 10.0 mi South 9.2 mph - N/A   Overcast
9:55 AM 55.0 °F - 48.0 °F 77% 30.01 in 10.0 mi SSE 10.4 mph - N/A   Overcast
10:55 AM 62.2 °F - 48.4 °F 60% 30.00 in 10.0 mi South 15.0 mph - N/A   Mostly Cloudy
11:55 AM 64.8 °F - 49.8 °F 58% 29.96 in 10.0 mi SSE 13.8 mph - N/A   Overcast
12:55 PM 65.7 °F - 52.5 °F 62% 29.94 in 10.0 mi SSE 11.5 mph - N/A   Overcast
1:44 PM 64.4 °F - 53.6 °F 68% 29.91 in 10.0 mi SSE 9.2 mph - N/A Rain Light Rain Showers
1:51 PM 64.4 °F - 53.6 °F 68% 29.93 in 10.0 mi South 9.2 mph - N/A Rain , Thunderstorm Light Thunderstorms and Rain
1:55 PM 62.6 °F - 55.4 °F 77% 29.93 in 10.0 mi South 10.4 mph - N/A Rain , Thunderstorm Light Thunderstorms and Rain
2:29 PM 60.8 °F - 57.2 °F 88% 29.93 in 10.0 mi SSE 10.4 mph - N/A Rain , Thunderstorm Light Thunderstorms and Rain
2:53 PM 59.0 °F - 57.2 °F 94% 29.88 in 10.0 mi SSE 20.7 mph 24.2 mph N/A Rain , Thunderstorm Light Thunderstorms and Rain
2:55 PM 59.5 °F - 57.6 °F 93% 29.87 in 9.0 mi SSE 23.0 mph - 0.09 in Rain , Thunderstorm Light Thunderstorms and Rain
3:00 PM 59.0 °F - 59.0 °F 100% 29.89 in 9.0 mi SE 24.2 mph - N/A Rain Light Rain Showers
3:05 PM 60.8 °F - 59.0 °F 94% 29.92 in 10.0 mi SSE 13.8 mph 27.6 mph N/A Rain Light Rain Showers
3:55 PM 61.2 °F - 59.9 °F 96% 29.92 in 10.0 mi Variable 4.6 mph - 0.02 in   Mostly Cloudy
4:04 PM 60.8 °F - 59.0 °F 94% 29.92 in 10.0 mi WNW 3.5 mph - N/A   Overcast
4:31 PM 60.8 °F - 60.8 °F 100% 29.91 in 10.0 mi Variable 3.5 mph - N/A   Overcast
4:55 PM 61.3 °F - 59.7 °F 94% 29.92 in 10.0 mi SSW 3.5 mph - N/A   Mostly Cloudy
5:55 PM 61.2 °F - 60.4 °F 97% 29.92 in 10.0 mi Calm Calm - N/A   Overcast
6:13 PM 60.8 °F - 60.8 °F 100% 29.93 in 10.0 mi Calm Calm - N/A   Overcast
6:37 PM 59.0 °F - 59.0 °F 100% 29.93 in 4.0 mi SSE 5.8 mph - N/A   Overcast
6:39 PM 59.0 °F - 59.0 °F 100% 29.94 in 5.0 mi SSE 5.8 mph - N/A   Overcast
6:55 PM 59.7 °F - 59.7 °F 100% 29.94 in 9.0 mi SSE 3.5 mph - N/A   Overcast
7:00 PM 59.0 °F - 59.0 °F 100% 29.94 in 8.0 mi Calm Calm - N/A   Overcast
7:07 PM 59.0 °F - 59.0 °F 100% 29.94 in 8.0 mi Calm Calm - N/A   Overcast
7:26 PM 59.0 °F - 59.0 °F 100% 29.95 in 9.0 mi Calm Calm - N/A   Overcast
7:38 PM 59.0 °F - 59.0 °F 100% 29.95 in 6.0 mi Calm Calm - N/A   Overcast
7:39 PM 59.0 °F - 59.0 °F 100% 29.95 in 6.0 mi Calm Calm - N/A   Overcast
7:44 PM 59.0 °F - 59.0 °F 100% 29.95 in 7.0 mi SSE 3.5 mph - N/A   Overcast
7:55 PM 59.0 °F - 59.0 °F 100% 29.95 in 7.0 mi SSE 3.5 mph - N/A   Overcast
8:01 PM 59.0 °F - 59.0 °F 100% 29.95 in 5.0 mi SSE 4.6 mph - N/A   Mostly Cloudy
8:08 PM 59.0 °F - 59.0 °F 100% 29.96 in 3.0 mi SSE 3.5 mph - N/A   Mostly Cloudy
8:23 PM 59.0 °F - 59.0 °F 100% 29.96 in 3.0 mi SSE 6.9 mph - N/A   Mostly Cloudy
8:55 PM 58.8 °F - 58.8 °F 100% 29.99 in 3.0 mi South 3.5 mph - N/A   Overcast
8:59 PM 59.0 °F - 59.0 °F 100% 29.99 in 4.0 mi South 3.5 mph - N/A   Overcast
9:07 PM 59.0 °F - 59.0 °F 100% 29.99 in 3.0 mi Calm Calm - N/A   Overcast
9:18 PM 59.0 °F - 59.0 °F 100% 30.00 in 2.0 mi Calm Calm - N/A   Overcast
9:39 PM 59.0 °F - 59.0 °F 100% 30.01 in 1.0 mi Calm Calm - N/A   Overcast
9:47 PM 59.0 °F - 59.0 °F 100% 30.01 in 1.0 mi Calm Calm - N/A   Overcast
9:55 PM 59.2 °F - 59.2 °F 100% 30.01 in 1.0 mi Calm Calm - N/A   Overcast
10:05 PM 59.0 °F - 59.0 °F 100% 30.01 in 1.0 mi NNW 8.1 mph - N/A   Overcast
10:06 PM 59.0 °F - 59.0 °F 100% 30.01 in 1.0 mi NNW 8.1 mph - N/A   Overcast
10:07 PM 59.0 °F - 59.0 °F 100% 30.01 in 1.0 mi North 6.9 mph - N/A   Overcast
10:09 PM 59.0 °F - 59.0 °F 100% 30.01 in 1.2 mi Calm Calm - N/A   Overcast
10:10 PM 59.0 °F - 59.0 °F 100% 30.01 in 1.5 mi Calm Calm - N/A   Overcast
10:13 PM 59.0 °F - 59.0 °F 100% 30.01 in 0.2 mi Calm Calm - N/A Fog Fog
10:29 PM 59.0 °F - 59.0 °F 100% 30.01 in 0.5 mi Calm Calm - N/A   Overcast
10:41 PM 59.0 °F - 59.0 °F 100% 30.02 in 0.5 mi Calm Calm - N/A Fog Fog
10:55 PM 58.8 °F - 58.8 °F 100% 30.02 in 0.5 mi Calm Calm - N/A Fog Fog
11:44 PM 59.0 °F - 59.0 °F 100% 30.03 in 0.2 mi Calm Calm - N/A Fog Fog
11:55 PM 59.4 °F - 59.4 °F 100% 30.03 in 0.2 mi Calm Calm - N/A Fog Fog